This is the latest recevied weather packets stored in our database for station/object K5BOU. If no packets are shown the sender has not sent any weather packets the latest 10 day(s).
| Time | Temp. | Humidity | Pressure | Rain* | Wind** | Luminosity | Snow |
|---|---|---|---|---|---|---|---|
| 1777915612 | 26.67° C | 68% | 1012.5 hPa | 0 mm | - | 243 W/m² | - |
| 1777915309 | 26.11° C | 69% | 1012.8 hPa | 0 mm | - | 807 W/m² | - |
| 1777915005 | 25° C | 73% | 1012.7 hPa | 0 mm | - | 844 W/m² | - |
| 1777914703 | 25.56° C | 72% | 1012.7 hPa | 0 mm | - | 237 W/m² | - |
| 1777914399 | 25.56° C | 70% | 1012.8 hPa | 0 mm | - | 308 W/m² | - |
| 1777914097 | 26.11° C | 70% | 1013.2 hPa | 0 mm | - | 725 W/m² | - |
| 1777913792 | 25.56° C | 71% | 1013.2 hPa | 0 mm | - | 868 W/m² | - |
| 1777913489 | 25.56° C | 71% | 1013.2 hPa | 0 mm | - | 337 W/m² | - |
| 1777913186 | 25.56° C | 72% | 1013.1 hPa | 0 mm | - | 872 W/m² | - |
| 1777912882 | 25° C | 72% | 1013.2 hPa | 0 mm | - | 826 W/m² | - |
| 1777912579 | 25° C | 72% | 1013.4 hPa | 0 mm | - | 239 W/m² | - |
| 1777912275 | 25° C | 72% | 1013.5 hPa | 0 mm | - | 251 W/m² | - |
| 1777911971 | 25.56° C | 70% | 1013.6 hPa | 0 mm | - | 920 W/m² | - |
| 1777911667 | 25° C | 71% | 1013.6 hPa | 0 mm | - | 911 W/m² | - |
| 1777911363 | 25° C | 73% | 1013.7 hPa | 0 mm | - | 908 W/m² | - |
| 1777911062 | 24.44° C | 74% | 1013.7 hPa | 0 mm | - | 951 W/m² | - |
| 1777910759 | 24.44° C | 73% | 1013.5 hPa | 0 mm | - | 333 W/m² | - |
| 1777910455 | 23.89° C | 76% | 1013.7 hPa | 0 mm | - | 892 W/m² | - |
| 1777910151 | 23.89° C | 76% | 1013.9 hPa | 0 mm | - | 160 W/m² | - |
| 1777909850 | 23.89° C | 76% | 1013.9 hPa | 0 mm | - | 646 W/m² | - |
| 1777909545 | 23.89° C | 77% | 1013.8 hPa | 0 mm | - | 177 W/m² | - |
| 1777909243 | 23.89° C | 76% | 1013.8 hPa | 0 mm | - | 270 W/m² | - |
| 1777908941 | 24.44° C | 76% | 1013.6 hPa | 0 mm | - | 231 W/m² | - |
| 1777908639 | 23.89° C | 77% | 1013.7 hPa | 0 mm | - | 869 W/m² | - |
| 1777908336 | 23.89° C | 77% | 1013.6 hPa | 0 mm | - | 801 W/m² | - |
* Rain latest hour (hover to see other rain measurements)
** Current wind speed in m/s (hover to see current wind gust speed)